Regional Weather Roundup
Issued by NWS

Home | Current Version | Previous Version | Graphics & Text | Print | Product List | Glossary On
Versions: 1 2 3 4 5 6 7 8 9 10 11 12 13 14 15 16 17 18 19 20 21 22 23 24 25 26 27 28 29 30 31 32 33 34 35 36 37 38 39 40 41 42 43 44 45 46 47 48 49 50
887
ASUS43 KBIS 181410
RWRND

NORTH DAKOTA REGIONAL WEATHER ROUNDUP
NATIONAL WEATHER SERVICE BISMARCK ND
900 AM CDT FRI AUG 18 2017

NOTE: "FAIR" INDICATES FEW OR NO CLOUDS BELOW 12,000 FEET WITH NO
SIGNIFICANT WEATHER AND/OR OBSTRUCTIONS TO VISIBILITY.


NDZ001>003-009>011-017-181500-
NORTHWEST NORTH DAKOTA

CITY           SKY/WX    TMP DP  RH WIND       PRES   REMARKS
WILLISTON      SUNNY     60  55  83 CALM      29.99R
MINOT          SUNNY     63  57  81 SW6       29.93R
MINOT AFB      SUNNY     62  56  80 W9        29.92R
$$

NDZ018>021-031>035-040>046-181500-
SOUTHWEST NORTH DAKOTA

CITY           SKY/WX    TMP DP  RH WIND       PRES   REMARKS
BISMARCK       SUNNY     64  55  72 N7        29.96R
DICKINSON      CLOUDY    61  54  77 W6        29.98S
GARRISON         N/A     63  57  81 W6        29.95S
HETTINGER ARPT SUNNY     61  52  72 NW6       30.02R
$$

NDZ004>008-012>016-024-026-027-054-181500-
NORTHEAST NORTH DAKOTA

CITY           SKY/WX    TMP DP  RH WIND       PRES   REMARKS
GRAND FORKS    CLOUDY    67  63  87 NW10      29.85R
GRND FRKS AFB  PTSUNNY   66  61  82 N8        29.88R
DEVILS LAKE    CLOUDY    64  59  83 NW6       29.90S
$$

NDZ022-023-025-028>030-036>039-047>053-181500-
SOUTHEAST NORTH DAKOTA

CITY           SKY/WX    TMP DP  RH WIND       PRES   REMARKS
FARGO          PTSUNNY   66  60  81 NW6       29.87R
JAMESTOWN      CLOUDY    62  58  86 N15       29.89R
$$





USA.gov is the U.S. government's official web portal to all federal, state and local government web resources and services.